This is the latest recevied weather packets stored in our database for station/object EB5AGF-13. If no packets are shown the sender has not sent any weather packets the latest 10 day(s).
| Time | Temp. | Humidity | Pressure | Rain* | Wind** | Luminosity | Snow |
|---|---|---|---|---|---|---|---|
| 1777740844 | 20° C | 82% | 1013.5 hPa | 0 mm | 2.24 m/s, 4° | 100 W/m² | - |
| 1777740539 | 20° C | 82% | 1013.5 hPa | 0 mm | 1.34 m/s, 57° | 135 W/m² | - |
| 1777740235 | 20° C | 82% | 1013.6 hPa | 0 mm | 1.79 m/s, 336° | 199 W/m² | - |
| 1777739931 | 20° C | 82% | 1013.6 hPa | 0 mm | 0.89 m/s, 18° | 130 W/m² | - |
| 1777739627 | 20° C | 82% | 1013.7 hPa | 0 mm | 2.68 m/s, 352° | 108 W/m² | - |
| 1777739323 | 20° C | 82% | 1014 hPa | 0 mm | 3.13 m/s, 38° | 114 W/m² | - |
| 1777739018 | 20° C | 82% | 1013.9 hPa | 0 mm | 1.79 m/s, 338° | 129 W/m² | - |
| 1777738717 | 20° C | 81% | 1013.8 hPa | 0 mm | 3.58 m/s, 63° | 133 W/m² | - |
| 1777738410 | 20.56° C | 81% | 1013.7 hPa | 0 mm | 2.68 m/s, 85° | 127 W/m² | - |
| 1777738107 | 20.56° C | 82% | 1013.8 hPa | 0 mm | 1.79 m/s, 309° | 121 W/m² | - |
| 1777737803 | 20.56° C | 81% | 1013.8 hPa | 0 mm | 1.79 m/s, 27° | 125 W/m² | - |
| 1777737500 | 20.56° C | 80% | 1014 hPa | 0 mm | 2.24 m/s, 47° | 153 W/m² | - |
| 1777737195 | 20.56° C | 80% | 1014.1 hPa | 0 mm | 2.68 m/s, 101° | 160 W/m² | - |
| 1777736891 | 21.11° C | 79% | 1014.3 hPa | 0 mm | 1.79 m/s, 59° | 168 W/m² | - |
| 1777736586 | 20.56° C | 79% | 1014.2 hPa | 0 mm | 1.34 m/s, 353° | 153 W/m² | - |
| 1777736284 | 21.11° C | 78% | 1014.3 hPa | 0 mm | 1.79 m/s, 0° | 147 W/m² | - |
| 1777735979 | 21.11° C | 79% | 1014.5 hPa | 0 mm | 2.24 m/s, 53° | 168 W/m² | - |
| 1777735675 | 21.11° C | 78% | 1014.7 hPa | 0 mm | 1.34 m/s, 46° | 193 W/m² | - |
| 1777735371 | 21.11° C | 78% | 1014.3 hPa | 0 mm | 1.79 m/s, 345° | 197 W/m² | - |
| 1777735067 | 21.11° C | 78% | 1014.6 hPa | 0 mm | 1.34 m/s, 0° | 209 W/m² | - |
| 1777734763 | 21.11° C | 78% | 1014.6 hPa | 0 mm | 2.24 m/s, 348° | 206 W/m² | - |
| 1777734453 | 21.11° C | 77% | 1014.5 hPa | 0 mm | 2.24 m/s, 35° | 244 W/m² | - |
| 1777734152 | 21.11° C | 78% | 1014.7 hPa | 0 mm | 0.89 m/s, 20° | 232 W/m² | - |
| 1777733852 | 21.11° C | 77% | 1014.9 hPa | 0 mm | 2.68 m/s, 110° | 216 W/m² | - |
| 1777733552 | 21.11° C | 78% | 1014.8 hPa | 0 mm | 1.79 m/s, 59° | 211 W/m² | - |
* Rain latest hour (hover to see other rain measurements)
** Current wind speed in m/s (hover to see current wind gust speed)